TimeMDT,TemperatureF,Dew PointF,Humidity,Sea Level PressureIn,VisibilityMPH,Wind Direction,Wind SpeedMPH,Gust SpeedMPH,PrecipitationIn,Events,Conditions,WindDirDegrees,DateUTC
12:15 AM,46.4,30.2,53,30.04,10.0,ESE,11.5,-,N/A,,Mostly Cloudy,110,2013-04-22 06:15:00
12:35 AM,44.6,32.0,61,30.03,10.0,ESE,16.1,-,N/A,,Mostly Cloudy,120,2013-04-22 06:35:00
12:55 AM,44.6,32.0,61,30.03,10.0,SE,9.2,-,N/A,,Scattered Clouds,140,2013-04-22 06:55:00
1:15 AM,44.6,32.0,61,30.02,10.0,South,3.5,-,N/A,,Scattered Clouds,180,2013-04-22 07:15:00
1:35 AM,42.8,32.0,66,30.02,10.0,Calm,Calm,-,N/A,,Scattered Clouds,0,2013-04-22 07:35:00
1:55 AM,41.0,32.0,70,30.02,10.0,Calm,Calm,-,N/A,,Clear,0,2013-04-22 07:55:00
2:15 AM,39.2,30.2,70,30.01,10.0,SSE,4.6,-,N/A,,Clear,160,2013-04-22 08:15:00
2:35 AM,41.0,30.2,65,30.01,10.0,SSE,4.6,-,N/A,,Clear,150,2013-04-22 08:35:00
2:55 AM,35.6,30.2,81,30.01,10.0,East,4.6,-,N/A,,Clear,90,2013-04-22 08:55:00
3:15 AM,33.8,30.2,87,30.00,10.0,East,4.6,-,N/A,,Clear,90,2013-04-22 09:15:00
3:35 AM,33.8,28.4,81,30.00,10.0,ESE,4.6,-,N/A,,Clear,110,2013-04-22 09:35:00
3:55 AM,33.8,28.4,81,29.99,10.0,SW,4.6,-,N/A,,Clear,220,2013-04-22 09:55:00
4:15 AM,33.8,30.2,87,29.99,10.0,NE,3.5,-,N/A,,Clear,50,2013-04-22 10:15:00
4:35 AM,32.0,28.4,87,29.99,10.0,East,4.6,-,N/A,,Clear,100,2013-04-22 10:35:00
4:55 AM,32.0,28.4,87,29.99,10.0,ESE,4.6,-,N/A,Thunderstorm,Clear,120,2013-04-22 10:55:00
5:15 AM,32.0,28.4,87,29.99,10.0,Calm,Calm,-,N/A,,Clear,0,2013-04-22 11:15:00
5:35 AM,32.0,28.4,87,30.00,10.0,Calm,Calm,-,N/A,,Clear,0,2013-04-22 11:35:00
5:55 AM,32.0,28.4,87,30.00,10.0,Calm,Calm,-,N/A,,Scattered Clouds,0,2013-04-22 11:55:00
6:15 AM,32.0,28.4,87,30.00,10.0,SE,3.5,-,N/A,,Mostly Cloudy,130,2013-04-22 12:15:00
6:35 AM,32.0,28.4,87,30.00,10.0,Calm,Calm,-,N/A,,Mostly Cloudy,0,2013-04-22 12:35:00
6:55 AM,32.0,30.2,93,30.00,10.0,Calm,Calm,-,N/A,Thunderstorm,Overcast,0,2013-04-22 12:55:00
7:15 AM,33.8,32.0,93,30.01,10.0,Calm,Calm,-,N/A,Thunderstorm,Overcast,0,2013-04-22 13:15:00
7:35 AM,33.8,32.0,93,30.02,10.0,South,3.5,-,N/A,,Overcast,170,2013-04-22 13:35:00
8:15 AM,37.4,32.0,81,30.02,10.0,ESE,3.5,-,N/A,,Scattered Clouds,110,2013-04-22 14:15:00
8:35 AM,39.2,32.0,75,30.02,10.0,WNW,4.6,-,N/A,,Scattered Clouds,290,2013-04-22 14:35:00
8:55 AM,39.2,32.0,75,30.02,10.0,SW,3.5,-,N/A,,Mostly Cloudy,230,2013-04-22 14:55:00
9:15 AM,41.0,32.0,70,30.02,10.0,WNW,3.5,-,N/A,,Scattered Clouds,300,2013-04-22 15:15:00
9:35 AM,44.6,32.0,61,30.02,10.0,ENE,4.6,-,N/A,,Scattered Clouds,70,2013-04-22 15:35:00
9:55 AM,48.2,30.2,50,30.02,10.0,North,4.6,-,N/A,,Scattered Clouds,10,2013-04-22 15:55:00
10:15 AM,44.6,30.2,57,30.02,10.0,North,17.3,23.0,N/A,,Scattered Clouds,10,2013-04-22 16:15:00
10:35 AM,44.6,30.2,57,30.02,10.0,NNE,16.1,23.0,N/A,,Mostly Cloudy,20,2013-04-22 16:35:00
10:55 AM,42.8,32.0,66,30.03,10.0,NNE,20.7,26.5,N/A,,Overcast,30,2013-04-22 16:55:00
11:15 AM,42.8,30.2,61,30.03,10.0,NNE,18.4,25.3,N/A,,Overcast,30,2013-04-22 17:15:00
11:35 AM,44.6,30.2,57,30.03,10.0,NNE,17.3,23.0,N/A,,Overcast,30,2013-04-22 17:35:00
11:55 AM,46.4,30.2,53,30.03,10.0,North,9.2,19.6,N/A,,Overcast,10,2013-04-22 17:55:00
12:15 PM,46.4,26.6,46,30.03,10.0,North,12.7,17.3,N/A,,Overcast,360,2013-04-22 18:15:00
12:35 PM,46.4,26.6,46,30.02,10.0,North,11.5,19.6,N/A,,Overcast,350,2013-04-22 18:35:00
12:55 PM,46.4,26.6,46,30.03,10.0,NW,9.2,19.6,N/A,,Overcast,320,2013-04-22 18:55:00
1:15 PM,44.6,26.6,49,30.02,10.0,NNW,15.0,23.0,N/A,,Overcast,330,2013-04-22 19:15:00
1:35 PM,46.4,26.6,46,30.01,10.0,NNW,15.0,-,N/A,,Overcast,340,2013-04-22 19:35:00
1:55 PM,46.4,26.6,46,30.01,10.0,NNW,17.3,20.7,N/A,,Overcast,340,2013-04-22 19:55:00
2:15 PM,48.2,24.8,40,30.01,10.0,WSW,4.6,19.6,N/A,,Overcast,250,2013-04-22 20:15:00
2:35 PM,46.4,24.8,43,30.00,10.0,North,15.0,26.5,N/A,,Overcast,350,2013-04-22 20:35:00
2:55 PM,50.0,26.6,40,30.01,10.0,NNE,4.6,-,N/A,,Overcast,30,2013-04-22 20:55:00
3:15 PM,51.8,26.6,38,30.01,10.0,SSE,3.5,-,N/A,,Mostly Cloudy,150,2013-04-22 21:15:00
3:35 PM,53.6,26.6,35,30.01,10.0,West,18.4,21.9,N/A,,Mostly Cloudy,260,2013-04-22 21:35:00
3:55 PM,53.6,23.0,30,30.00,10.0,WSW,16.1,26.5,N/A,,Mostly Cloudy,250,2013-04-22 21:55:00
4:15 PM,51.8,23.0,33,30.00,10.0,WNW,11.5,21.9,N/A,,Mostly Cloudy,290,2013-04-22 22:15:00
4:35 PM,46.4,21.2,37,29.99,10.0,NNW,21.9,28.8,N/A,,Mostly Cloudy,330,2013-04-22 22:35:00
4:55 PM,48.2,21.2,34,30.00,10.0,NNW,18.4,26.5,N/A,,Mostly Cloudy,330,2013-04-22 22:55:00
5:15 PM,50.0,21.2,32,30.01,10.0,NW,11.5,27.6,N/A,,Scattered Clouds,320,2013-04-22 23:15:00
5:35 PM,50.0,19.4,30,30.01,10.0,NNW,13.8,19.6,N/A,,Scattered Clouds,330,2013-04-22 23:35:00
5:55 PM,50.0,17.6,28,30.01,10.0,NNW,8.1,-,N/A,,Scattered Clouds,330,2013-04-22 23:55:00
6:15 PM,48.2,17.6,30,30.01,10.0,NNW,13.8,-,N/A,,Scattered Clouds,330,2013-04-23 00:15:00
6:35 PM,46.4,15.8,29,30.02,10.0,NNW,12.7,17.3,N/A,,Scattered Clouds,330,2013-04-23 00:35:00
6:55 PM,46.4,14.0,27,30.03,10.0,NNW,11.5,-,N/A,,Clear,330,2013-04-23 00:55:00
7:15 PM,44.6,14.0,29,30.03,10.0,NNW,11.5,-,N/A,,Clear,340,2013-04-23 01:15:00
7:35 PM,42.8,14.0,31,30.03,10.0,North,11.5,-,N/A,,Clear,350,2013-04-23 01:35:00
7:55 PM,41.0,15.8,36,30.05,10.0,North,8.1,-,N/A,,Clear,360,2013-04-23 01:55:00
8:15 PM,39.2,14.0,36,30.05,10.0,North,6.9,-,N/A,,Clear,10,2013-04-23 02:15:00
8:35 PM,37.4,14.0,38,30.06,10.0,NNE,3.5,-,N/A,,Clear,30,2013-04-23 02:35:00
8:55 PM,37.4,14.0,38,30.07,10.0,ENE,3.5,-,N/A,,Clear,70,2013-04-23 02:55:00
9:15 PM,37.4,14.0,38,30.08,10.0,East,6.9,-,N/A,,Clear,100,2013-04-23 03:15:00
9:35 PM,37.4,17.6,45,30.09,10.0,ENE,10.4,-,N/A,,Clear,60,2013-04-23 03:35:00
9:55 PM,37.4,17.6,45,30.10,10.0,ENE,10.4,-,N/A,,Clear,60,2013-04-23 03:55:00
10:15 PM,35.6,19.4,52,30.10,10.0,NE,8.1,-,N/A,,Clear,50,2013-04-23 04:15:00
10:35 PM,35.6,19.4,52,30.11,10.0,ENE,8.1,-,N/A,,Clear,70,2013-04-23 04:35:00
10:55 PM,32.0,19.4,60,30.10,10.0,East,8.1,-,N/A,Thunderstorm,Thunderstorm,80,2013-04-23 04:55:00
11:15 PM,33.8,19.4,56,30.10,10.0,NNE,8.1,-,N/A,,Clear,30,2013-04-23 05:15:00
11:35 PM,32.0,21.2,64,30.10,10.0,NE,9.2,-,N/A,,Clear,40,2013-04-23 05:35:00